Hourly Data Report for March 28, 2021

OTTAWA INTL A
ONTARIO
Current Station Operator: NAVCAN

45°19'00.000" N
75°40'00.000" W
114.90 m
6106001
71628
YOW

Download Data

Hourly Data (March 2021)
Hourly Data Report for March 28, 2021
TIME
LST
Temp Definition
°C
Dew Point Definition
°C
Rel Hum Definition
%
Precip. Amount Definition
mm

Wind Dir Definition
10's deg

Wind Spd Definition
km/h
Visibility Definition
km
Stn Press Definition
kPa
Hmdx Definition


Wind Chill Definition


Weather Definition


00:00 1.7 -1.2 81   8 16 24.1 100.28     LegendNANA
01:00 1.8 -1.6 78   8 20 24.1 100.20     Cloudy
02:00 2.0 -1.7 77   6 22 24.1 100.04     LegendNANA
03:00 1.6 -1.5 80   7 16 24.1 99.87     LegendNANA
04:00 1.3 -1.3 83   6 17 24.1 99.78     Mostly Cloudy
05:00 1.6 -1.1 82   8 24 24.1 99.58     LegendNANA
06:00 1.6 -0.9 84   7 19 24.1 99.54     LegendNANA
07:00 1.5 -0.4 87   8 19 24.1 99.38     Cloudy
08:00 1.8 0.0 88   8 26 16.1 99.24     LegendNANA
09:00 3.0 0.9 86   7 23 16.1 99.01     Rain
10:00 4.3 2.0 85   5 17 12.9 98.83     Rain
11:00 3.6 2.6 93   6 17 12.9 98.58     Rain
12:00 4.1 3.5 96   5 28 12.9 98.27     Rain
13:00 6.1 5.8 97   8 18 4.8 98.03     Rain, Fog
14:00 7.6 7.3 98   8 12 6.4 97.76     Rain, Fog
15:00 9.0 8.8 99   26 5 9.7 97.72     Rain, Fog
16:00 7.9 7.8 99   20 7 4.8 97.76     Rain, Fog
17:00 10.2 10.0 98   22 16 24.1 97.75     LegendNANA
18:00 10.4 9.2 92   21 21 24.1 97.80     LegendNANA
19:00 9.2 6.9 85   23 30 24.1 97.84     Mostly Cloudy
20:00 6.6 3.3 79   23 35 24.1 97.98     LegendNANA
21:00 5.3 1.1 74   25 38 24.1 98.07     LegendNANA
22:00 4.3 0.6 76   24 34 16.1 98.06     Cloudy
23:00 2.8 0.7 86   25 38 12.9 98.06     Rain

Notes on Data Quality.

Legend

  • E = Estimated
  • M = Missing
  • NA = Not Available*
  • [empty] = Indicates an unobserved value
Date modified: